Starlink 30885

operational
NORAD ID: 58361 Int'l Des: 2023-177 Owner: SPXS Country: US Constellation: starlink
LEOCIRCULAR

About Starlink 30885

Description loading...

Live Position

Loading 3D Globe...

Upcoming Passes

Altitude History

Altitude vs Time

uPlot chart will show altitude changes over time

Two-Line Element Set

1 58361U 23177L 25302.79996102 .00001602 00000-0 13356-3 0 9998
2 58361 43.0052 343.0609 0001661 268.5236 91.5416 15.02552278108530
Epoch: Oct 29, 2025 • Age: 31 hours

Current Status

Altitude 566.8 km
Velocity 7.58 km/s
Sub-Earth Point -31.35°S, 118.89°E
Launch Date Nov 18, 2023
Age 1.9 years
Type internet

Technical Details

Classification Payload
Mass 730.00 kg
Dry Mass 700.00 kg
Total Mass 730.00 kg
Length 0.30 m
Diameter 4.10 m
Span 29.00 m
Shape Box + pan
Manufacturer SPXS
Bus Type Starlink V2M
Phase Status In Orbit
Owner/State SPXS/US

Large Constellations

Loading constellations...